N318DS KF70-KSTS

Flight info

Callsign N318DS
Flight time 1h 41m
Altitude 30000
Route CIVET J60 PDZ J50 LANDO J5 EHF RGOOD REBAS1
Aircraft BE20/L-SBGRY/S

Departure

Time 2026-04-19 04:22
Airport French Valley Airport (KF70)

Arrival

Time 2026-04-19 06:03
Airport Charles M. Schulz Sonoma County Airport (KSTS)
Time Latitude Longitude Altitude Speed Heading
2026-04-19 03:21 33.57190 -117.13040 1360 ft 0 kts 13°
2026-04-19 04:10 33.57236 -117.13027 1364 ft 12 kts 12°
2026-04-19 04:10 33.57280 -117.13010 1365 ft 5 kts 61°
2026-04-19 04:10 33.57286 -117.12970 1368 ft 8 kts 47°
2026-04-19 04:11 33.57367 -117.12944 1364 ft 16 kts 13°
2026-04-19 04:11 33.57499 -117.12909 1364 ft 22 kts 12°
2026-04-19 04:11 33.57673 -117.12864 1362 ft 29 kts 12°
2026-04-19 04:11 33.57817 -117.12826 1364 ft 18 kts 12°
2026-04-19 04:12 33.57958 -117.12789 1365 ft 24 kts 12°
2026-04-19 04:12 33.58105 -117.12750 1364 ft 14 kts 12°
2026-04-19 04:12 33.58202 -117.12724 1370 ft 8 kts 14°
2026-04-19 04:12 33.58228 -117.12706 1369 ft 0 kts 67°
2026-04-19 04:19 33.58226 -117.12667 1367 ft 9 kts 102°
2026-04-19 04:20 33.58204 -117.12645 1366 ft 7 kts 191°
2026-04-19 04:20 33.58201 -117.12646 1366 ft 0 kts 190°
2026-04-19 04:21 33.58059 -117.12681 1363 ft 53 kts 192°
2026-04-19 04:21 33.57492 -117.12831 1367 ft 111 kts 192°
2026-04-19 04:21 33.56687 -117.12989 1743 ft 118 kts 175°
2026-04-19 04:22 33.55992 -117.12543 2273 ft 121 kts 128°
2026-04-19 04:22 33.55672 -117.11558 2688 ft 134 kts 92°
2026-04-19 04:22 33.55949 -117.10510 3237 ft 140 kts 50°
2026-04-19 04:22 33.56858 -117.09853 3519 ft 163 kts
2026-04-19 04:23 33.57951 -117.10208 3959 ft 172 kts 321°
2026-04-19 04:23 33.58775 -117.11311 4296 ft 185 kts 308°
2026-04-19 04:23 33.59707 -117.12447 4677 ft 192 kts 319°
2026-04-19 04:23 33.60618 -117.13446 5613 ft 167 kts 315°
2026-04-19 04:24 33.61438 -117.14424 6138 ft 173 kts 320°
2026-04-19 04:24 33.62312 -117.15377 6773 ft 169 kts 319°
2026-04-19 04:24 33.63295 -117.16246 7137 ft 181 kts 331°
2026-04-19 04:24 33.64453 -117.16932 7602 ft 188 kts 335°
2026-04-19 04:25 33.65658 -117.17583 8070 ft 192 kts 335°
2026-04-19 04:25 33.66893 -117.18253 8547 ft 196 kts 334°
2026-04-19 04:25 33.68146 -117.18944 8967 ft 200 kts 333°
2026-04-19 04:25 33.69419 -117.19655 9450 ft 203 kts 333°
2026-04-19 04:26 33.70712 -117.20383 9939 ft 206 kts 332°
2026-04-19 04:26 33.72003 -117.21111 10376 ft 209 kts 332°
2026-04-19 04:26 33.73329 -117.21861 10827 ft 211 kts 332°
2026-04-19 04:26 33.74668 -117.22618 11285 ft 214 kts 332°
2026-04-19 04:27 33.76017 -117.23384 11778 ft 215 kts 331°
2026-04-19 04:27 33.77284 -117.24336 12256 ft 215 kts 318°
2026-04-19 04:27 33.78399 -117.25528 12737 ft 215 kts 315°
2026-04-19 04:27 33.79528 -117.26728 13226 ft 217 kts 315°
2026-04-19 04:28 33.80668 -117.27923 13723 ft 216 kts 315°
2026-04-19 04:28 33.81795 -117.29105 14165 ft 214 kts 315°
2026-04-19 04:28 33.82907 -117.30273 14609 ft 211 kts 315°
2026-04-19 04:28 33.84006 -117.31430 15061 ft 208 kts 315°
2026-04-19 04:29 33.85078 -117.32561 15516 ft 206 kts 315°
2026-04-19 04:29 33.86150 -117.33694 15980 ft 204 kts 314°
2026-04-19 04:29 33.87212 -117.34816 16465 ft 202 kts 314°
2026-04-19 04:29 33.88262 -117.35925 16930 ft 199 kts 314°
2026-04-19 04:30 33.89296 -117.37019 17414 ft 196 kts 314°
2026-04-19 04:30 33.90316 -117.38099 17872 ft 196 kts 314°
2026-04-19 04:30 33.91355 -117.39201 18209 ft 202 kts 314°
2026-04-19 04:30 33.92422 -117.40332 18508 ft 207 kts 314°
2026-04-19 04:31 33.93526 -117.41501 18756 ft 215 kts 314°
2026-04-19 04:31 33.94668 -117.42709 18991 ft 222 kts 314°
2026-04-19 04:31 33.95842 -117.43950 19231 ft 227 kts 315°
2026-04-19 04:31 33.97044 -117.45221 19454 ft 232 kts 315°
2026-04-19 04:32 33.98266 -117.46513 19692 ft 236 kts 315°
2026-04-19 04:32 33.99507 -117.47827 19942 ft 238 kts 315°
2026-04-19 04:32 34.00755 -117.49153 20181 ft 240 kts 315°
2026-04-19 04:32 34.02010 -117.50487 20422 ft 241 kts 315°
2026-04-19 04:33 34.03273 -117.51829 20666 ft 242 kts 315°
2026-04-19 04:33 34.04539 -117.53174 20912 ft 243 kts 315°
2026-04-19 04:33 34.05791 -117.54505 21157 ft 243 kts 315°
2026-04-19 04:33 34.07078 -117.55871 21410 ft 243 kts 315°
2026-04-19 04:34 34.08334 -117.57206 21661 ft 243 kts 315°
2026-04-19 04:34 34.09604 -117.58557 21917 ft 243 kts 315°
2026-04-19 04:34 34.10873 -117.59907 22174 ft 243 kts 315°
2026-04-19 04:34 34.12141 -117.61256 22457 ft 243 kts 315°
2026-04-19 04:35 34.13407 -117.62604 22715 ft 243 kts 315°
2026-04-19 04:35 34.14670 -117.63950 22982 ft 242 kts 315°
2026-04-19 04:35 34.15932 -117.65295 23250 ft 241 kts 315°
2026-04-19 04:35 34.17187 -117.66633 23522 ft 241 kts 315°
2026-04-19 04:36 34.18442 -117.67967 23758 ft 240 kts 315°
2026-04-19 04:36 34.19690 -117.69301 23984 ft 239 kts 315°
2026-04-19 04:36 34.20931 -117.70625 24213 ft 238 kts 315°
2026-04-19 04:36 34.22166 -117.71945 24433 ft 236 kts 315°
2026-04-19 04:37 34.23394 -117.73258 24657 ft 234 kts 315°
2026-04-19 04:37 34.24204 -117.74124 24813 ft 234 kts 315°
2026-04-19 04:37 34.25419 -117.75425 25051 ft 233 kts 315°
2026-04-19 04:37 34.26632 -117.76723 25268 ft 233 kts 315°
2026-04-19 04:38 34.27851 -117.78029 25427 ft 235 kts 315°
2026-04-19 04:38 34.29079 -117.79345 25591 ft 236 kts 315°
2026-04-19 04:38 34.30314 -117.80666 25768 ft 238 kts 315°
2026-04-19 04:38 34.31557 -117.81998 25933 ft 239 kts 315°
2026-04-19 04:39 34.32803 -117.83331 26107 ft 240 kts 315°
2026-04-19 04:39 34.34055 -117.84674 26274 ft 240 kts 315°
2026-04-19 04:39 34.35305 -117.86014 26443 ft 240 kts 315°
2026-04-19 04:39 34.36555 -117.87355 26621 ft 240 kts 315°
2026-04-19 04:40 34.37804 -117.88695 26792 ft 239 kts 315°
2026-04-19 04:40 34.39050 -117.90032 26964 ft 239 kts 315°
2026-04-19 04:40 34.40292 -117.91366 27138 ft 238 kts 315°
2026-04-19 04:40 34.41528 -117.92694 27309 ft 237 kts 314°
2026-04-19 04:41 34.42756 -117.94015 27487 ft 235 kts 315°
2026-04-19 04:41 34.43978 -117.95330 27674 ft 234 kts 315°
2026-04-19 04:41 34.45195 -117.96639 27831 ft 234 kts 314°
2026-04-19 04:41 34.46415 -117.97954 27991 ft 235 kts 314°
2026-04-19 04:42 34.47624 -117.99256 28120 ft 236 kts 315°
2026-04-19 04:42 34.48851 -118.00579 28255 ft 236 kts 315°
2026-04-19 04:42 34.50084 -118.01909 28394 ft 239 kts 314°
2026-04-19 04:42 34.51339 -118.03264 28532 ft 244 kts 315°
2026-04-19 04:43 34.52619 -118.04646 28670 ft 248 kts 315°
2026-04-19 04:43 34.53923 -118.06054 28808 ft 252 kts 315°
2026-04-19 04:43 34.55243 -118.07478 28959 ft 255 kts 315°
2026-04-19 04:43 34.56574 -118.08914 29094 ft 257 kts 315°
2026-04-19 04:44 34.57915 -118.10362 29230 ft 259 kts 315°
2026-04-19 04:44 34.59264 -118.11818 29366 ft 260 kts 315°
2026-04-19 04:44 34.60615 -118.13278 29486 ft 261 kts 315°
2026-04-19 04:44 34.61972 -118.14746 29626 ft 261 kts 315°
2026-04-19 04:45 34.63329 -118.16214 29781 ft 261 kts 315°
2026-04-19 04:45 34.64686 -118.17684 29908 ft 261 kts 315°
2026-04-19 04:45 34.66045 -118.19156 30009 ft 263 kts 315°
2026-04-19 04:45 34.67404 -118.20630 30019 ft 267 kts 315°
2026-04-19 04:46 34.68799 -118.22145 30022 ft 270 kts 315°
2026-04-19 04:46 34.70205 -118.23671 30028 ft 272 kts 315°
2026-04-19 04:46 34.71623 -118.25211 30030 ft 274 kts 315°
2026-04-19 04:46 34.73054 -118.26765 30032 ft 276 kts 314°
2026-04-19 04:47 34.74489 -118.28324 30028 ft 277 kts 315°
2026-04-19 04:47 34.75929 -118.29889 30030 ft 278 kts 315°
2026-04-19 04:47 34.77369 -118.31455 30030 ft 278 kts 315°
2026-04-19 04:47 34.78798 -118.33009 30027 ft 279 kts 315°
2026-04-19 04:48 34.80243 -118.34583 30028 ft 279 kts 315°
2026-04-19 04:48 34.81695 -118.36164 30027 ft 280 kts 315°
2026-04-19 04:48 34.83143 -118.37743 30026 ft 280 kts 315°
2026-04-19 04:48 34.84598 -118.39330 30023 ft 281 kts 315°
2026-04-19 04:49 34.86056 -118.40920 30020 ft 281 kts 315°
2026-04-19 04:49 34.87515 -118.42512 30018 ft 281 kts 315°
2026-04-19 04:49 34.88973 -118.44105 30022 ft 282 kts 315°
2026-04-19 04:49 34.90430 -118.45696 30056 ft 282 kts 315°
2026-04-19 04:50 34.91893 -118.47296 30063 ft 282 kts 315°
2026-04-19 04:50 34.93340 -118.48876 30063 ft 282 kts 315°
2026-04-19 04:50 34.94819 -118.50497 30065 ft 283 kts 315°
2026-04-19 04:50 34.96262 -118.52078 30071 ft 283 kts 315°
2026-04-19 04:51 34.97727 -118.53682 30070 ft 283 kts 315°
2026-04-19 04:51 34.99190 -118.55285 30072 ft 283 kts 315°
2026-04-19 04:51 35.00651 -118.56887 30075 ft 282 kts 315°
2026-04-19 04:51 35.02091 -118.58514 30080 ft 281 kts 309°
2026-04-19 04:52 35.03334 -118.60328 30081 ft 279 kts 307°
2026-04-19 04:52 35.04602 -118.62133 30076 ft 281 kts 308°
2026-04-19 04:52 35.05897 -118.63924 30070 ft 281 kts 308°
2026-04-19 04:52 35.07194 -118.65708 30070 ft 281 kts 308°
2026-04-19 04:53 35.08491 -118.67497 30069 ft 281 kts 308°
2026-04-19 04:53 35.09785 -118.69288 30059 ft 281 kts 308°
2026-04-19 04:53 35.11075 -118.71080 30050 ft 281 kts 308°
2026-04-19 04:53 35.12366 -118.72879 30044 ft 281 kts 308°
2026-04-19 04:54 35.13649 -118.74671 30030 ft 280 kts 308°
2026-04-19 04:54 35.14933 -118.76466 30026 ft 280 kts 307°
2026-04-19 04:54 35.16216 -118.78262 29974 ft 280 kts 307°
2026-04-19 04:54 35.17495 -118.80055 29973 ft 280 kts 307°
2026-04-19 04:55 35.18776 -118.81850 29974 ft 280 kts 307°
2026-04-19 04:55 35.20037 -118.83619 29975 ft 279 kts 307°
2026-04-19 04:55 35.21316 -118.85415 29969 ft 279 kts 307°
2026-04-19 04:55 35.22592 -118.87206 29969 ft 279 kts 307°
2026-04-19 04:56 35.23867 -118.88998 29973 ft 279 kts 307°
2026-04-19 04:56 35.25146 -118.90795 29968 ft 280 kts 307°
2026-04-19 04:56 35.26424 -118.92593 29968 ft 280 kts 307°
2026-04-19 04:56 35.27702 -118.94391 29965 ft 280 kts 307°
2026-04-19 04:57 35.28980 -118.96191 29973 ft 280 kts 307°
2026-04-19 04:57 35.30259 -118.97993 29971 ft 280 kts 307°
2026-04-19 04:57 35.31538 -118.99795 29971 ft 281 kts 307°
2026-04-19 04:57 35.32818 -119.01599 29971 ft 281 kts 307°
2026-04-19 04:58 35.34098 -119.03404 29973 ft 281 kts 307°
2026-04-19 04:58 35.35365 -119.05193 29974 ft 281 kts 307°
2026-04-19 04:58 35.36643 -119.06998 29932 ft 281 kts 307°
2026-04-19 04:58 35.37922 -119.08805 29932 ft 281 kts 307°
2026-04-19 04:59 35.39203 -119.10615 29934 ft 281 kts 307°
2026-04-19 04:59 35.40483 -119.12425 29935 ft 281 kts 307°
2026-04-19 04:59 35.41763 -119.14238 29936 ft 281 kts 307°
2026-04-19 04:59 35.43045 -119.16054 29938 ft 282 kts 307°
2026-04-19 05:00 35.44329 -119.17871 29940 ft 282 kts 307°
2026-04-19 05:00 35.45616 -119.19697 29943 ft 282 kts 307°
2026-04-19 05:00 35.46899 -119.21516 29946 ft 282 kts 307°
2026-04-19 05:00 35.48183 -119.23338 29948 ft 282 kts 307°
2026-04-19 05:01 35.49466 -119.25159 29961 ft 282 kts 307°
2026-04-19 05:01 35.50751 -119.26984 29957 ft 283 kts 307°
2026-04-19 05:01 35.52039 -119.28816 29956 ft 283 kts 307°
2026-04-19 05:01 35.53313 -119.30628 29955 ft 284 kts 307°
2026-04-19 05:02 35.54605 -119.32465 29956 ft 284 kts 307°
2026-04-19 05:02 35.55894 -119.34300 29961 ft 284 kts 307°
2026-04-19 05:02 35.57182 -119.36134 29959 ft 283 kts 307°
2026-04-19 05:02 35.58468 -119.37967 29960 ft 283 kts 307°
2026-04-19 05:03 35.59754 -119.39800 29962 ft 283 kts 307°
2026-04-19 05:03 35.61038 -119.41632 29961 ft 283 kts 307°
2026-04-19 05:03 35.62324 -119.43467 29960 ft 283 kts 307°
2026-04-19 05:03 35.63605 -119.45297 29959 ft 283 kts 307°
2026-04-19 05:04 35.64886 -119.47128 29954 ft 282 kts 306°
2026-04-19 05:04 35.66168 -119.48960 29956 ft 282 kts 306°
2026-04-19 05:04 35.67448 -119.50792 29955 ft 282 kts 306°
2026-04-19 05:04 35.68730 -119.52627 29954 ft 282 kts 306°
2026-04-19 05:05 35.70013 -119.54463 29966 ft 283 kts 307°
2026-04-19 05:05 35.71297 -119.56304 29958 ft 283 kts 307°
2026-04-19 05:05 35.72580 -119.58144 29958 ft 284 kts 306°
2026-04-19 05:05 35.73865 -119.59987 29955 ft 284 kts 306°
2026-04-19 05:06 35.75136 -119.61811 29950 ft 284 kts 306°
2026-04-19 05:06 35.76421 -119.63656 29949 ft 284 kts 306°
2026-04-19 05:06 35.77709 -119.65506 29947 ft 284 kts 306°
2026-04-19 05:06 35.78994 -119.67353 29943 ft 284 kts 306°
2026-04-19 05:07 35.80279 -119.69201 29945 ft 284 kts 306°
2026-04-19 05:07 35.81566 -119.71053 29943 ft 284 kts 306°
2026-04-19 05:07 35.82852 -119.72904 29951 ft 284 kts 306°
2026-04-19 05:07 35.84140 -119.74760 29951 ft 284 kts 306°
2026-04-19 05:08 35.85409 -119.76589 29946 ft 284 kts 306°
2026-04-19 05:08 35.87979 -119.80297 29948 ft 284 kts 306°
2026-04-19 05:08 35.89263 -119.82150 29948 ft 283 kts 306°
2026-04-19 05:09 35.90640 -119.83900 29959 ft 287 kts 317°
2026-04-19 05:09 35.92368 -119.85162 29958 ft 292 kts 336°
2026-04-19 05:09 35.94288 -119.86010 29956 ft 293 kts 336°
2026-04-19 05:09 35.96189 -119.86913 29954 ft 293 kts 335°
2026-04-19 05:10 35.98089 -119.87828 29956 ft 294 kts 335°
2026-04-19 05:10 35.99998 -119.88741 29950 ft 294 kts 335°
2026-04-19 05:10 36.01884 -119.89636 29951 ft 294 kts 335°
2026-04-19 05:10 36.03801 -119.90542 29952 ft 295 kts 336°
2026-04-19 05:11 36.05713 -119.91444 29955 ft 295 kts 336°
2026-04-19 05:11 36.07630 -119.92347 29958 ft 295 kts 335°
2026-04-19 05:11 36.09550 -119.93252 29957 ft 295 kts 335°
2026-04-19 05:11 36.11466 -119.94155 29957 ft 294 kts 335°
2026-04-19 05:12 36.13379 -119.95058 29960 ft 294 kts 335°
2026-04-19 05:12 36.15298 -119.95963 29960 ft 294 kts 335°
2026-04-19 05:12 36.17210 -119.96866 29961 ft 294 kts 335°
2026-04-19 05:12 36.19122 -119.97770 29962 ft 294 kts 335°
2026-04-19 05:13 36.21031 -119.98672 29963 ft 294 kts 335°
2026-04-19 05:13 36.22942 -119.99576 29964 ft 294 kts 335°
2026-04-19 05:13 36.24831 -120.00469 29950 ft 294 kts 335°
2026-04-19 05:13 36.26722 -120.01420 29953 ft 292 kts 329°
2026-04-19 05:14 36.28449 -120.02704 29953 ft 288 kts 319°
2026-04-19 05:14 36.29970 -120.04290 29949 ft 285 kts 312°
2026-04-19 05:14 36.31419 -120.05959 29954 ft 285 kts 312°
2026-04-19 05:14 36.32866 -120.07634 29953 ft 285 kts 312°
2026-04-19 05:15 36.34316 -120.09311 29955 ft 285 kts 312°
2026-04-19 05:15 36.35775 -120.10996 29956 ft 285 kts 312°
2026-04-19 05:15 36.37226 -120.12671 29961 ft 286 kts 312°
2026-04-19 05:15 36.38683 -120.14352 29959 ft 286 kts 312°
2026-04-19 05:16 36.40129 -120.16021 29960 ft 287 kts 312°
2026-04-19 05:16 36.41590 -120.17709 29966 ft 287 kts 312°
2026-04-19 05:16 36.43052 -120.19399 29965 ft 287 kts 312°
2026-04-19 05:16 36.44517 -120.21092 29965 ft 287 kts 312°
2026-04-19 05:17 36.45976 -120.22779 29967 ft 287 kts 312°
2026-04-19 05:17 36.47438 -120.24472 29965 ft 287 kts 312°
2026-04-19 05:17 36.48901 -120.26166 29962 ft 287 kts 312°
2026-04-19 05:17 36.50361 -120.27858 29962 ft 287 kts 312°
2026-04-19 05:18 36.51821 -120.29550 29968 ft 287 kts 312°
2026-04-19 05:18 36.53284 -120.31247 29969 ft 287 kts 312°
2026-04-19 05:18 36.54743 -120.32940 29967 ft 287 kts 312°
2026-04-19 05:18 36.56204 -120.34637 29967 ft 287 kts 312°
2026-04-19 05:19 36.57663 -120.36332 29969 ft 287 kts 312°
2026-04-19 05:19 36.59123 -120.38029 29968 ft 287 kts 312°
2026-04-19 05:19 36.60584 -120.39729 29968 ft 287 kts 312°
2026-04-19 05:19 36.62025 -120.41407 29976 ft 288 kts 311°
2026-04-19 05:20 36.63491 -120.43113 29976 ft 289 kts 311°
2026-04-19 05:20 36.64960 -120.44825 29974 ft 289 kts 311°
2026-04-19 05:20 36.66430 -120.46538 29975 ft 289 kts 311°
2026-04-19 05:20 36.67899 -120.48251 29975 ft 289 kts 311°
2026-04-19 05:21 36.69372 -120.49970 29971 ft 289 kts 311°
2026-04-19 05:21 36.70842 -120.51686 29980 ft 290 kts 311°
2026-04-19 05:21 36.72318 -120.53410 29979 ft 290 kts 311°
2026-04-19 05:21 36.73787 -120.55127 29985 ft 290 kts 311°
2026-04-19 05:22 36.75259 -120.56848 29978 ft 290 kts 311°
2026-04-19 05:22 36.76727 -120.58567 29978 ft 290 kts 311°
2026-04-19 05:22 36.78197 -120.60288 29979 ft 290 kts 311°
2026-04-19 05:22 36.79666 -120.62008 29976 ft 290 kts 311°
2026-04-19 05:23 36.80641 -120.63151 29985 ft 290 kts 311°
2026-04-19 05:23 36.82110 -120.64874 29984 ft 290 kts 311°
2026-04-19 05:23 36.83580 -120.66598 29982 ft 290 kts 311°
2026-04-19 05:23 36.85527 -120.68884 29981 ft 290 kts 311°
2026-04-19 05:24 36.86520 -120.70050 29973 ft 290 kts 311°
2026-04-19 05:24 36.87968 -120.71752 29976 ft 289 kts 311°
2026-04-19 05:24 36.89433 -120.73474 29980 ft 289 kts 311°
2026-04-19 05:24 36.90900 -120.75199 29984 ft 289 kts 310°
2026-04-19 05:25 36.92365 -120.76924 29985 ft 289 kts 311°
2026-04-19 05:25 36.93829 -120.78648 29980 ft 289 kts 311°
2026-04-19 05:25 36.95292 -120.80372 29980 ft 289 kts 311°
2026-04-19 05:25 36.96753 -120.82095 29980 ft 289 kts 310°
2026-04-19 05:26 36.98214 -120.83819 29978 ft 288 kts 310°
2026-04-19 05:26 36.99675 -120.85543 29969 ft 288 kts 310°
2026-04-19 05:26 37.01030 -120.87364 29967 ft 284 kts 302°
2026-04-19 05:26 37.02171 -120.89357 29970 ft 280 kts 296°
2026-04-19 05:27 37.03175 -120.91408 29969 ft 280 kts 295°
2026-04-19 05:27 37.04177 -120.93491 29968 ft 280 kts 295°
2026-04-19 05:27 37.05180 -120.95578 29974 ft 280 kts 295°
2026-04-19 05:27 37.06186 -120.97669 29978 ft 280 kts 295°
2026-04-19 05:28 37.07194 -120.99760 29972 ft 281 kts 295°
2026-04-19 05:28 37.08205 -121.01859 29971 ft 281 kts 295°
2026-04-19 05:28 37.09214 -121.03953 29971 ft 281 kts 295°
2026-04-19 05:28 37.10225 -121.06052 29969 ft 281 kts 295°
2026-04-19 05:29 37.11236 -121.08153 29983 ft 281 kts 295°
2026-04-19 05:29 37.12246 -121.10253 29983 ft 282 kts 295°
2026-04-19 05:29 37.13259 -121.12361 29986 ft 282 kts 295°
2026-04-19 05:29 37.14272 -121.14469 29986 ft 282 kts 295°
2026-04-19 05:30 37.15285 -121.16581 29984 ft 283 kts 295°
2026-04-19 05:30 37.16299 -121.18694 29971 ft 283 kts 295°
2026-04-19 05:30 37.17309 -121.20803 29759 ft 288 kts 295°
2026-04-19 05:30 37.18349 -121.22977 29538 ft 292 kts 295°
2026-04-19 05:31 37.19398 -121.25165 29341 ft 294 kts 295°
2026-04-19 05:31 37.20458 -121.27386 29085 ft 298 kts 295°
2026-04-19 05:31 37.21529 -121.29624 28810 ft 299 kts 295°
2026-04-19 05:31 37.22603 -121.31868 28544 ft 300 kts 295°
2026-04-19 05:32 37.23678 -121.34115 28273 ft 301 kts 295°
2026-04-19 05:32 37.24757 -121.36375 28006 ft 302 kts 295°
2026-04-19 05:32 37.25836 -121.38638 27748 ft 302 kts 295°
2026-04-19 05:32 37.26917 -121.40907 27488 ft 303 kts 295°
2026-04-19 05:33 37.28000 -121.43180 27238 ft 304 kts 295°
2026-04-19 05:33 37.29085 -121.45461 26986 ft 304 kts 295°
2026-04-19 05:33 37.30173 -121.47748 26616 ft 306 kts 295°
2026-04-19 05:33 37.31262 -121.50039 26200 ft 305 kts 295°
2026-04-19 05:34 37.32350 -121.52329 25794 ft 305 kts 294°
2026-04-19 05:34 37.33439 -121.54624 25386 ft 305 kts 295°
2026-04-19 05:34 37.34525 -121.56914 24984 ft 306 kts 295°
2026-04-19 05:34 37.35615 -121.59215 24589 ft 306 kts 295°
2026-04-19 05:35 37.36691 -121.61487 24194 ft 307 kts 295°
2026-04-19 05:35 37.37781 -121.63792 23817 ft 307 kts 294°
2026-04-19 05:35 37.38876 -121.66107 23408 ft 308 kts 294°
2026-04-19 05:35 37.39970 -121.68422 22946 ft 308 kts 295°
2026-04-19 05:36 37.41066 -121.70742 22492 ft 307 kts 295°
2026-04-19 05:36 37.42154 -121.73049 22044 ft 306 kts 295°
2026-04-19 05:36 37.43240 -121.75349 21607 ft 305 kts 295°
2026-04-19 05:36 37.44321 -121.77642 21183 ft 304 kts 295°
2026-04-19 05:37 37.45400 -121.79933 20756 ft 303 kts 296°
2026-04-19 05:37 37.46468 -121.82204 20338 ft 301 kts 296°
2026-04-19 05:37 37.47532 -121.84468 20061 ft 295 kts 296°
2026-04-19 05:37 37.48547 -121.86620 20028 ft 285 kts 295°
2026-04-19 05:38 37.49453 -121.88784 20005 ft 275 kts 289°
2026-04-19 05:38 37.50163 -121.90990 19998 ft 268 kts 284°
2026-04-19 05:38 37.50731 -121.93206 19993 ft 264 kts 282°
2026-04-19 05:38 37.51281 -121.95398 19991 ft 262 kts 282°
2026-04-19 05:39 37.51832 -121.97590 19993 ft 263 kts 282°
2026-04-19 05:39 37.52389 -121.99816 19986 ft 269 kts 282°
2026-04-19 05:39 37.52956 -122.02083 19986 ft 273 kts 282°
2026-04-19 05:39 37.53531 -122.04373 19984 ft 275 kts 282°
2026-04-19 05:40 37.54110 -122.06680 19986 ft 277 kts 282°
2026-04-19 05:40 37.54692 -122.09002 19987 ft 278 kts 282°
2026-04-19 05:40 37.55276 -122.11329 19985 ft 279 kts 282°
2026-04-19 05:40 37.55852 -122.13632 19982 ft 279 kts 282°
2026-04-19 05:41 37.56436 -122.15971 19992 ft 279 kts 282°
2026-04-19 05:41 37.57020 -122.18309 19991 ft 280 kts 282°
2026-04-19 05:41 37.57608 -122.20670 19792 ft 286 kts 282°
2026-04-19 05:41 37.58214 -122.23120 19347 ft 298 kts 283°
2026-04-19 05:42 37.58842 -122.25644 18901 ft 305 kts 283°
2026-04-19 05:42 37.59480 -122.28204 18457 ft 308 kts 284°
2026-04-19 05:42 37.60126 -122.30792 17966 ft 309 kts 284°
2026-04-19 05:42 37.61007 -122.33266 17470 ft 313 kts 300°
2026-04-19 05:43 37.62429 -122.35347 16984 ft 316 kts 317°
2026-04-19 05:43 37.64298 -122.36831 16498 ft 319 kts 335°
2026-04-19 05:43 37.66435 -122.37553 16025 ft 320 kts 353°
2026-04-19 05:43 37.68622 -122.37631 15560 ft 317 kts 359°
2026-04-19 05:44 37.70827 -122.37690 15096 ft 316 kts 358°
2026-04-19 05:44 37.73025 -122.37760 14638 ft 316 kts 358°
2026-04-19 05:44 37.75219 -122.37828 14194 ft 314 kts 358°
2026-04-19 05:44 37.77405 -122.37894 13739 ft 313 kts 359°
2026-04-19 05:45 37.79588 -122.37958 13238 ft 314 kts 359°
2026-04-19 05:45 37.81780 -122.38021 12745 ft 316 kts 359°
2026-04-19 05:45 37.83975 -122.38084 12260 ft 315 kts 359°
2026-04-19 05:45 37.86148 -122.38146 12056 ft 306 kts 359°
2026-04-19 05:46 37.88235 -122.38206 12026 ft 296 kts 359°
2026-04-19 05:46 37.90276 -122.38265 12010 ft 291 kts 359°
2026-04-19 05:46 37.92283 -122.38328 12002 ft 286 kts 357°
2026-04-19 05:46 37.94254 -122.38638 11991 ft 284 kts 347°
2026-04-19 05:47 37.96125 -122.39302 11985 ft 282 kts 340°
2026-04-19 05:47 37.97973 -122.40141 11984 ft 281 kts 339°
2026-04-19 05:47 37.99813 -122.40982 11987 ft 281 kts 339°
2026-04-19 05:47 38.01653 -122.41821 11987 ft 281 kts 339°
2026-04-19 05:48 38.03490 -122.42658 11988 ft 281 kts 339°
2026-04-19 05:48 38.05330 -122.43506 11989 ft 280 kts 337°
2026-04-19 05:48 38.07055 -122.44632 11991 ft 279 kts 325°
2026-04-19 05:48 38.08573 -122.46151 11992 ft 277 kts 316°
2026-04-19 05:49 38.10095 -122.47649 11991 ft 278 kts 326°
2026-04-19 05:49 38.11766 -122.48890 11992 ft 279 kts 329°
2026-04-19 05:49 38.13472 -122.50076 11992 ft 280 kts 330°
2026-04-19 05:49 38.15173 -122.51268 11991 ft 280 kts 329°
2026-04-19 05:50 38.16875 -122.52479 11993 ft 280 kts 329°
2026-04-19 05:50 38.18571 -122.53700 11992 ft 280 kts 329°
2026-04-19 05:50 38.20267 -122.54929 11992 ft 280 kts 329°
2026-04-19 05:50 38.21960 -122.56160 11992 ft 281 kts 329°
2026-04-19 05:51 38.23632 -122.57376 11898 ft 278 kts 329°
2026-04-19 05:51 38.25340 -122.58621 11447 ft 279 kts 329°
2026-04-19 05:51 38.27005 -122.59834 11013 ft 279 kts 329°
2026-04-19 05:51 38.28688 -122.61061 10572 ft 278 kts 329°
2026-04-19 05:52 38.30362 -122.62282 10157 ft 277 kts 328°
2026-04-19 05:52 38.32033 -122.63502 9716 ft 276 kts 328°
2026-04-19 05:52 38.33696 -122.64717 9239 ft 275 kts 328°
2026-04-19 05:52 38.35355 -122.65930 8772 ft 274 kts 328°
2026-04-19 05:53 38.37006 -122.67138 8316 ft 273 kts 328°
2026-04-19 05:53 38.38663 -122.68351 7866 ft 273 kts 328°
2026-04-19 05:53 38.40310 -122.69558 7435 ft 273 kts 328°
2026-04-19 05:53 38.41936 -122.70747 7185 ft 266 kts 328°
2026-04-19 05:54 38.43505 -122.71896 7140 ft 256 kts 327°
2026-04-19 05:54 38.45047 -122.73025 7125 ft 254 kts 327°
2026-04-19 05:54 38.46575 -122.74147 7106 ft 253 kts 327°
2026-04-19 05:54 38.48085 -122.75255 7085 ft 253 kts 327°
2026-04-19 05:55 38.49609 -122.76375 7061 ft 253 kts 327°
2026-04-19 05:55 38.51135 -122.77497 7039 ft 253 kts 327°
2026-04-19 05:55 38.52660 -122.78619 7017 ft 252 kts 327°
2026-04-19 05:55 38.54179 -122.79736 6994 ft 251 kts 327°
2026-04-19 05:56 38.55687 -122.80845 7029 ft 249 kts 327°
2026-04-19 05:56 38.57211 -122.81969 6833 ft 258 kts 327°
2026-04-19 05:56 38.58780 -122.83129 6486 ft 263 kts 327°
2026-04-19 05:56 38.60377 -122.84307 6149 ft 266 kts 327°
2026-04-19 05:57 38.61985 -122.85493 5793 ft 267 kts 327°
2026-04-19 05:57 38.63599 -122.86683 5439 ft 266 kts 327°
2026-04-19 05:57 38.65177 -122.87846 5091 ft 262 kts 327°
2026-04-19 05:57 38.66746 -122.89008 4740 ft 252 kts 326°
2026-04-19 05:58 38.67888 -122.90519 4364 ft 233 kts 290°
2026-04-19 05:58 38.68014 -122.92436 4018 ft 210 kts 248°
2026-04-19 05:58 38.67147 -122.93783 3686 ft 193 kts 204°
2026-04-19 05:58 38.65866 -122.93984 3340 ft 185 kts 171°
2026-04-19 05:59 38.64657 -122.93499 2980 ft 181 kts 155°
2026-04-19 05:59 38.63582 -122.92691 2619 ft 179 kts 146°
2026-04-19 05:59 38.62580 -122.91750 2272 ft 178 kts 143°
2026-04-19 05:59 38.61600 -122.90775 1909 ft 177 kts 142°
2026-04-19 06:00 38.60636 -122.89823 1654 ft 171 kts 143°
2026-04-19 06:00 38.59731 -122.88929 1579 ft 157 kts 143°
2026-04-19 06:00 38.58915 -122.88106 1534 ft 139 kts 141°
2026-04-19 06:00 38.58188 -122.87357 1451 ft 140 kts 142°
2026-04-19 06:01 38.57379 -122.86574 1588 ft 150 kts 141°
2026-04-19 06:01 38.56657 -122.85795 1566 ft 128 kts 139°
2026-04-19 06:01 38.56003 -122.85088 1337 ft 120 kts 140°
2026-04-19 06:01 38.55374 -122.84414 1140 ft 117 kts 140°
2026-04-19 06:02 38.54748 -122.83743 940 ft 119 kts 140°
2026-04-19 06:02 38.54109 -122.83062 716 ft 121 kts 141°
2026-04-19 06:02 38.53437 -122.82416 539 ft 119 kts 145°
2026-04-19 06:02 38.52726 -122.81904 354 ft 116 kts 155°
2026-04-19 06:03 38.51986 -122.81512 201 ft 114 kts 157°
2026-04-19 06:03 38.51264 -122.81119 135 ft 109 kts 157°
2026-04-19 06:03 38.50639 -122.80785 129 ft 77 kts 158°
2026-04-19 06:03 38.50497 -122.80709 130 ft 8 kts 156°
2026-04-19 06:04 38.50418 -122.80665 130 ft 20 kts 158°
2026-04-19 06:04 38.50331 -122.80622 131 ft 15 kts 158°
2026-04-19 06:04 38.50265 -122.80575 132 ft 10 kts 126°
2026-04-19 06:04 38.50271 -122.80487 133 ft 0 kts 64°
2026-04-19 06:05 38.50288 -122.80455 133 ft 10 kts 32°
2026-04-19 06:05 38.50375 -122.80488 132 ft 19 kts 337°
2026-04-19 06:05 38.50442 -122.80523 132 ft 9 kts 334°
2026-04-19 06:06 38.50512 -122.80563 131 ft 0 kts 338°
2026-04-19 06:06 38.50521 -122.80567 131 ft 5 kts 337°
2026-04-19 06:06 38.50547 -122.80574 130 ft 2 kts 33°
2026-04-19 06:06 38.50568 -122.80527 131 ft 7 kts 66°
2026-04-19 06:07 38.50609 -122.80516 131 ft 1 kts 333°